Pit Above Pit 1 Powerhouse [ USA-CAL ]

Edit Gauge

Current Conditions

Reading of "n/a" = frozen gauge or gauge error.
Reading Trend Type Updated
too low -0.4 r.c./hr Status 03h24m
599 cfs -19 cfs/hr Flow 03h24m

Station Description

AW Gauge ID: 48900
Source: dream
Station: 035
Enabled yes
AW thanks Chris Shackleton and Dreamflows for this data. Dreamflows data should only be analyzed in the context of the Dreamflows site. Data is often calculated and/or approximated. Please see Chris's site for a complete description of how this data should and can be interpreted. Source Gauge's Page

Information

Flow

Gauge History

Times listed in GMT 24h, ET and PT hours provided for convenience Graphs in GMT. Readings of "n/a" constitute a frozen gauge or gauge error.
Reading Updated (GMT) Eastern Pacific Comment
599.00 01/18/2018 16:00:00 Jan 18 11:00 am Jan 18 8:00 am
638.00 01/18/2018 13:58:24 Jan 18 08:58 am Jan 18 5:58 am
726.00 01/18/2018 11:58:56 Jan 18 06:58 am Jan 18 3:58 am
724.00 01/18/2018 09:59:28 Jan 18 04:59 am Jan 18 1:59 am
691.00 01/18/2018 08:00:00 Jan 18 03:00 am Jan 18 12:00 am
631.00 01/18/2018 04:58:40 Jan 17 11:58 pm Jan 17 8:58 pm
594.00 01/18/2018 03:58:56 Jan 17 10:58 pm Jan 17 7:58 pm
509.00 01/18/2018 01:59:28 Jan 17 08:59 pm Jan 17 5:59 pm
447.00 01/18/2018 00:00:00 Jan 17 07:00 pm Jan 17 4:00 pm
449.00 01/17/2018 22:58:08 Jan 17 05:58 pm Jan 17 2:58 pm
447.00 01/17/2018 21:58:24 Jan 17 04:58 pm Jan 17 1:58 pm
464.00 01/17/2018 20:58:40 Jan 17 03:58 pm Jan 17 12:58 pm
504.00 01/17/2018 19:58:56 Jan 17 02:58 pm Jan 17 11:58 am
503.00 01/17/2018 18:59:12 Jan 17 01:59 pm Jan 17 10:59 am
540.00 01/17/2018 17:59:28 Jan 17 12:59 pm Jan 17 9:59 am
551.00 01/17/2018 16:59:44 Jan 17 11:59 am Jan 17 8:59 am
589.00 01/17/2018 16:00:00 Jan 17 11:00 am Jan 17 8:00 am
603.00 01/17/2018 14:58:08 Jan 17 09:58 am Jan 17 6:58 am
665.00 01/17/2018 13:58:24 Jan 17 08:58 am Jan 17 5:58 am
713.00 01/17/2018 11:58:56 Jan 17 06:58 am Jan 17 3:58 am
719.00 01/17/2018 10:59:12 Jan 17 05:59 am Jan 17 2:59 am
726.00 01/17/2018 09:59:28 Jan 17 04:59 am Jan 17 1:59 am
737.00 01/17/2018 08:59:44 Jan 17 03:59 am Jan 17 12:59 am
694.00 01/17/2018 08:00:00 Jan 17 03:00 am Jan 17 12:00 am
638.00 01/17/2018 04:58:40 Jan 16 11:58 pm Jan 16 8:58 pm
599.00 01/17/2018 03:58:56 Jan 16 10:58 pm Jan 16 7:58 pm
549.00 01/17/2018 02:59:12 Jan 16 09:59 pm Jan 16 6:59 pm
460.00 01/17/2018 00:59:44 Jan 16 07:59 pm Jan 16 4:59 pm
443.00 01/16/2018 22:58:08 Jan 16 05:58 pm Jan 16 2:58 pm
502.00 01/16/2018 20:58:40 Jan 16 03:58 pm Jan 16 12:58 pm
529.00 01/16/2018 19:58:56 Jan 16 02:58 pm Jan 16 11:58 am
545.00 01/16/2018 17:59:28 Jan 16 12:59 pm Jan 16 9:59 am
590.00 01/16/2018 16:59:44 Jan 16 11:59 am Jan 16 8:59 am
623.00 01/16/2018 16:00:00 Jan 16 11:00 am Jan 16 8:00 am
675.00 01/16/2018 14:58:08 Jan 16 09:58 am Jan 16 6:58 am
720.00 01/16/2018 13:58:24 Jan 16 08:58 am Jan 16 5:58 am
772.00 01/16/2018 12:58:40 Jan 16 07:58 am Jan 16 4:58 am
812.00 01/16/2018 11:58:56 Jan 16 06:58 am Jan 16 3:58 am
831.00 01/16/2018 10:59:12 Jan 16 05:59 am Jan 16 2:59 am
828.00 01/16/2018 09:59:28 Jan 16 04:59 am Jan 16 1:59 am
870.00 01/16/2018 08:00:00 Jan 16 03:00 am Jan 16 12:00 am
722.00 01/16/2018 04:58:40 Jan 15 11:58 pm Jan 15 8:58 pm
664.00 01/16/2018 03:58:56 Jan 15 10:58 pm Jan 15 7:58 pm
509.00 01/16/2018 01:59:28 Jan 15 08:59 pm Jan 15 5:59 pm
404.00 01/16/2018 00:00:00 Jan 15 07:00 pm Jan 15 4:00 pm
412.00 01/15/2018 22:58:08 Jan 15 05:58 pm Jan 15 2:58 pm
420.00 01/15/2018 21:58:24 Jan 15 04:58 pm Jan 15 1:58 pm
408.00 01/15/2018 20:58:40 Jan 15 03:58 pm Jan 15 12:58 pm
413.00 01/15/2018 19:58:56 Jan 15 02:58 pm Jan 15 11:58 am
418.00 01/15/2018 18:59:12 Jan 15 01:59 pm Jan 15 10:59 am
420.00 01/15/2018 17:59:28 Jan 15 12:59 pm Jan 15 9:59 am
407.00 01/15/2018 16:59:44 Jan 15 11:59 am Jan 15 8:59 am
424.00 01/15/2018 16:00:00 Jan 15 11:00 am Jan 15 8:00 am
414.00 01/15/2018 14:58:08 Jan 15 09:58 am Jan 15 6:58 am
415.00 01/15/2018 13:58:24 Jan 15 08:58 am Jan 15 5:58 am
411.00 01/15/2018 12:58:40 Jan 15 07:58 am Jan 15 4:58 am
414.00 01/15/2018 11:58:56 Jan 15 06:58 am Jan 15 3:58 am
405.00 01/15/2018 10:59:12 Jan 15 05:59 am Jan 15 2:59 am
415.00 01/15/2018 09:59:28 Jan 15 04:59 am Jan 15 1:59 am
420.00 01/15/2018 08:59:44 Jan 15 03:59 am Jan 15 12:59 am
418.00 01/15/2018 04:58:40 Jan 14 11:58 pm Jan 14 8:58 pm
417.00 01/15/2018 03:58:56 Jan 14 10:58 pm Jan 14 7:58 pm
425.00 01/15/2018 02:59:12 Jan 14 09:59 pm Jan 14 6:59 pm
416.00 01/15/2018 01:59:28 Jan 14 08:59 pm Jan 14 5:59 pm
404.00 01/15/2018 00:00:00 Jan 14 07:00 pm Jan 14 4:00 pm
421.00 01/14/2018 22:58:08 Jan 14 05:58 pm Jan 14 2:58 pm
408.00 01/14/2018 21:58:24 Jan 14 04:58 pm Jan 14 1:58 pm
417.00 01/14/2018 20:58:40 Jan 14 03:58 pm Jan 14 12:58 pm
414.00 01/14/2018 19:58:56 Jan 14 02:58 pm Jan 14 11:58 am
413.00 01/14/2018 18:59:12 Jan 14 01:59 pm Jan 14 10:59 am
416.00 01/14/2018 17:59:28 Jan 14 12:59 pm Jan 14 9:59 am
431.00 01/14/2018 16:59:44 Jan 14 11:59 am Jan 14 8:59 am
422.00 01/14/2018 16:00:00 Jan 14 11:00 am Jan 14 8:00 am
415.00 01/14/2018 14:58:08 Jan 14 09:58 am Jan 14 6:58 am
420.00 01/14/2018 13:58:24 Jan 14 08:58 am Jan 14 5:58 am
408.00 01/14/2018 12:58:40 Jan 14 07:58 am Jan 14 4:58 am
416.00 01/14/2018 11:58:56 Jan 14 06:58 am Jan 14 3:58 am
414.00 01/14/2018 10:59:12 Jan 14 05:59 am Jan 14 2:59 am
417.00 01/14/2018 09:59:28 Jan 14 04:59 am Jan 14 1:59 am
421.00 01/14/2018 08:59:44 Jan 14 03:59 am Jan 14 12:59 am
424.00 01/14/2018 08:00:00 Jan 14 03:00 am Jan 14 12:00 am
450.00 01/14/2018 04:58:40 Jan 13 11:58 pm Jan 13 8:58 pm
448.00 01/14/2018 03:58:56 Jan 13 10:58 pm Jan 13 7:58 pm
413.00 01/14/2018 02:59:12 Jan 13 09:59 pm Jan 13 6:59 pm
455.00 01/14/2018 01:59:28 Jan 13 08:59 pm Jan 13 5:59 pm
446.00 01/14/2018 00:00:00 Jan 13 07:00 pm Jan 13 4:00 pm
452.00 01/13/2018 22:58:08 Jan 13 05:58 pm Jan 13 2:58 pm
472.00 01/13/2018 21:58:24 Jan 13 04:58 pm Jan 13 1:58 pm
511.00 01/13/2018 20:58:40 Jan 13 03:58 pm Jan 13 12:58 pm
513.00 01/13/2018 19:58:56 Jan 13 02:58 pm Jan 13 11:58 am
547.00 01/13/2018 18:59:12 Jan 13 01:59 pm Jan 13 10:59 am
549.00 01/13/2018 17:59:28 Jan 13 12:59 pm Jan 13 9:59 am
556.00 01/13/2018 16:59:44 Jan 13 11:59 am Jan 13 8:59 am
637.00 01/13/2018 16:00:00 Jan 13 11:00 am Jan 13 8:00 am
683.00 01/13/2018 14:58:08 Jan 13 09:58 am Jan 13 6:58 am
720.00 01/13/2018 13:58:24 Jan 13 08:58 am Jan 13 5:58 am
779.00 01/13/2018 12:58:40 Jan 13 07:58 am Jan 13 4:58 am
825.00 01/13/2018 11:58:56 Jan 13 06:58 am Jan 13 3:58 am
831.00 01/13/2018 10:59:12 Jan 13 05:59 am Jan 13 2:59 am
829.00 01/13/2018 09:59:28 Jan 13 04:59 am Jan 13 1:59 am
827.00 01/13/2018 08:59:44 Jan 13 03:59 am Jan 13 12:59 am
818.00 01/13/2018 08:00:00 Jan 13 03:00 am Jan 13 12:00 am
780.00 01/13/2018 04:58:40 Jan 12 11:58 pm Jan 12 8:58 pm
713.00 01/13/2018 03:58:56 Jan 12 10:58 pm Jan 12 7:58 pm
618.00 01/13/2018 02:59:12 Jan 12 09:59 pm Jan 12 6:59 pm
588.00 01/13/2018 01:59:28 Jan 12 08:59 pm Jan 12 5:59 pm
491.00 01/13/2018 00:00:00 Jan 12 07:00 pm Jan 12 4:00 pm
262.00 01/12/2018 22:58:08 Jan 12 05:58 pm Jan 12 2:58 pm
462.00 01/12/2018 21:58:24 Jan 12 04:58 pm Jan 12 1:58 pm
508.00 01/12/2018 20:58:40 Jan 12 03:58 pm Jan 12 12:58 pm
516.00 01/12/2018 19:58:56 Jan 12 02:58 pm Jan 12 11:58 am
550.00 01/12/2018 18:59:12 Jan 12 01:59 pm Jan 12 10:59 am
595.00 01/12/2018 17:59:28 Jan 12 12:59 pm Jan 12 9:59 am
706.00 01/12/2018 16:59:44 Jan 12 11:59 am Jan 12 8:59 am
625.00 01/12/2018 16:00:00 Jan 12 11:00 am Jan 12 8:00 am
677.00 01/12/2018 14:58:08 Jan 12 09:58 am Jan 12 6:58 am
719.00 01/12/2018 13:58:24 Jan 12 08:58 am Jan 12 5:58 am
759.00 01/12/2018 12:58:40 Jan 12 07:58 am Jan 12 4:58 am
820.00 01/12/2018 11:58:56 Jan 12 06:58 am Jan 12 3:58 am
841.00 01/12/2018 10:59:12 Jan 12 05:59 am Jan 12 2:59 am
827.00 01/12/2018 09:59:28 Jan 12 04:59 am Jan 12 1:59 am
839.00 01/12/2018 08:59:44 Jan 12 03:59 am Jan 12 12:59 am
768.00 01/12/2018 04:58:40 Jan 11 11:58 pm Jan 11 8:58 pm
447.00 01/12/2018 00:00:00 Jan 11 07:00 pm Jan 11 4:00 pm
442.00 01/11/2018 22:58:08 Jan 11 05:58 pm Jan 11 2:58 pm
501.00 01/11/2018 21:58:24 Jan 11 04:58 pm Jan 11 1:58 pm
505.00 01/11/2018 20:58:40 Jan 11 03:58 pm Jan 11 12:58 pm
504.00 01/11/2018 19:58:56 Jan 11 02:58 pm Jan 11 11:58 am
544.00 01/11/2018 18:59:12 Jan 11 01:59 pm Jan 11 10:59 am
548.00 01/11/2018 17:59:28 Jan 11 12:59 pm Jan 11 9:59 am
556.00 01/11/2018 16:59:44 Jan 11 11:59 am Jan 11 8:59 am
595.00 01/11/2018 16:00:00 Jan 11 11:00 am Jan 11 8:00 am
624.00 01/11/2018 14:58:08 Jan 11 09:58 am Jan 11 6:58 am
677.00 01/11/2018 13:58:24 Jan 11 08:58 am Jan 11 5:58 am
676.00 01/11/2018 12:58:40 Jan 11 07:58 am Jan 11 4:58 am
723.00 01/11/2018 11:58:56 Jan 11 06:58 am Jan 11 3:58 am
753.00 01/11/2018 10:59:12 Jan 11 05:59 am Jan 11 2:59 am
719.00 01/11/2018 09:59:28 Jan 11 04:59 am Jan 11 1:59 am
729.00 01/11/2018 08:59:44 Jan 11 03:59 am Jan 11 12:59 am
723.00 01/11/2018 08:00:00 Jan 11 03:00 am Jan 11 12:00 am
631.00 01/11/2018 04:58:40 Jan 10 11:58 pm Jan 10 8:58 pm
594.00 01/11/2018 03:58:56 Jan 10 10:58 pm Jan 10 7:58 pm
548.00 01/11/2018 02:59:12 Jan 10 09:59 pm Jan 10 6:59 pm
463.00 01/11/2018 01:59:28 Jan 10 08:59 pm Jan 10 5:59 pm
427.00 01/11/2018 00:00:00 Jan 10 07:00 pm Jan 10 4:00 pm
416.00 01/10/2018 22:58:08 Jan 10 05:58 pm Jan 10 2:58 pm
416.00 01/10/2018 21:58:24 Jan 10 04:58 pm Jan 10 1:58 pm
423.00 01/10/2018 20:58:40 Jan 10 03:58 pm Jan 10 12:58 pm
422.00 01/10/2018 19:58:56 Jan 10 02:58 pm Jan 10 11:58 am
417.00 01/10/2018 18:59:12 Jan 10 01:59 pm Jan 10 10:59 am
415.00 01/10/2018 17:59:28 Jan 10 12:59 pm Jan 10 9:59 am
422.00 01/10/2018 16:59:44 Jan 10 11:59 am Jan 10 8:59 am
414.00 01/10/2018 16:00:00 Jan 10 11:00 am Jan 10 8:00 am
451.00 01/10/2018 14:58:08 Jan 10 09:58 am Jan 10 6:58 am
412.00 01/10/2018 13:58:24 Jan 10 08:58 am Jan 10 5:58 am
393.00 01/10/2018 12:58:40 Jan 10 07:58 am Jan 10 4:58 am
413.00 01/10/2018 11:58:56 Jan 10 06:58 am Jan 10 3:58 am
419.00 01/10/2018 10:59:12 Jan 10 05:59 am Jan 10 2:59 am
413.00 01/10/2018 09:59:28 Jan 10 04:59 am Jan 10 1:59 am
415.00 01/10/2018 08:59:44 Jan 10 03:59 am Jan 10 12:59 am
419.00 01/10/2018 04:58:40 Jan 9 11:58 pm Jan 9 8:58 pm
419.00 01/10/2018 03:58:56 Jan 9 10:58 pm Jan 9 7:58 pm
421.00 01/10/2018 02:59:12 Jan 9 09:59 pm Jan 9 6:59 pm
422.00 01/10/2018 01:59:28 Jan 9 08:59 pm Jan 9 5:59 pm
414.00 01/10/2018 00:00:00 Jan 9 07:00 pm Jan 9 4:00 pm
424.00 01/09/2018 22:58:08 Jan 9 05:58 pm Jan 9 2:58 pm
421.00 01/09/2018 21:58:24 Jan 9 04:58 pm Jan 9 1:58 pm
415.00 01/09/2018 20:58:40 Jan 9 03:58 pm Jan 9 12:58 pm
418.00 01/09/2018 19:58:56 Jan 9 02:58 pm Jan 9 11:58 am
418.00 01/09/2018 18:59:12 Jan 9 01:59 pm Jan 9 10:59 am
413.00 01/09/2018 17:59:28 Jan 9 12:59 pm Jan 9 9:59 am
415.00 01/09/2018 16:59:44 Jan 9 11:59 am Jan 9 8:59 am
433.00 01/09/2018 16:00:00 Jan 9 11:00 am Jan 9 8:00 am
401.00 01/09/2018 14:58:08 Jan 9 09:58 am Jan 9 6:58 am
413.00 01/09/2018 13:58:24 Jan 9 08:58 am Jan 9 5:58 am
417.00 01/09/2018 12:58:40 Jan 9 07:58 am Jan 9 4:58 am
428.00 01/09/2018 11:58:56 Jan 9 06:58 am Jan 9 3:58 am
423.00 01/09/2018 10:59:12 Jan 9 05:59 am Jan 9 2:59 am
419.00 01/09/2018 09:59:28 Jan 9 04:59 am Jan 9 1:59 am
421.00 01/09/2018 08:59:44 Jan 9 03:59 am Jan 9 12:59 am
424.00 01/09/2018 04:58:40 Jan 8 11:58 pm Jan 8 8:58 pm
422.00 01/09/2018 03:58:56 Jan 8 10:58 pm Jan 8 7:58 pm
398.00 01/09/2018 02:59:12 Jan 8 09:59 pm Jan 8 6:59 pm
419.00 01/09/2018 00:59:44 Jan 8 07:59 pm Jan 8 4:59 pm
409.00 01/09/2018 00:00:00 Jan 8 07:00 pm Jan 8 4:00 pm
412.00 01/08/2018 22:58:08 Jan 8 05:58 pm Jan 8 2:58 pm
415.00 01/08/2018 21:58:24 Jan 8 04:58 pm Jan 8 1:58 pm
406.00 01/08/2018 20:58:40 Jan 8 03:58 pm Jan 8 12:58 pm
417.00 01/08/2018 19:58:56 Jan 8 02:58 pm Jan 8 11:58 am
407.00 01/08/2018 18:59:12 Jan 8 01:59 pm Jan 8 10:59 am
408.00 01/08/2018 17:59:28 Jan 8 12:59 pm Jan 8 9:59 am
419.00 01/08/2018 16:59:44 Jan 8 11:59 am Jan 8 8:59 am
409.00 01/08/2018 16:00:00 Jan 8 11:00 am Jan 8 8:00 am
406.00 01/08/2018 14:58:08 Jan 8 09:58 am Jan 8 6:58 am
418.00 01/08/2018 13:58:24 Jan 8 08:58 am Jan 8 5:58 am
431.00 01/08/2018 12:58:40 Jan 8 07:58 am Jan 8 4:58 am
413.00 01/08/2018 11:58:56 Jan 8 06:58 am Jan 8 3:58 am
414.00 01/08/2018 10:59:12 Jan 8 05:59 am Jan 8 2:59 am
419.00 01/08/2018 09:59:28 Jan 8 04:59 am Jan 8 1:59 am
410.00 01/08/2018 08:59:44 Jan 8 03:59 am Jan 8 12:59 am
431.00 01/08/2018 04:58:40 Jan 7 11:58 pm Jan 7 8:58 pm
416.00 01/08/2018 03:58:56 Jan 7 10:58 pm Jan 7 7:58 pm
418.00 01/08/2018 02:59:12 Jan 7 09:59 pm Jan 7 6:59 pm
414.00 01/08/2018 01:59:28 Jan 7 08:59 pm Jan 7 5:59 pm
387.00 01/08/2018 00:59:44 Jan 7 07:59 pm Jan 7 4:59 pm
409.00 01/08/2018 00:00:00 Jan 7 07:00 pm Jan 7 4:00 pm
134.00 01/07/2018 22:58:08 Jan 7 05:58 pm Jan 7 2:58 pm
428.00 01/07/2018 21:58:24 Jan 7 04:58 pm Jan 7 1:58 pm
406.00 01/07/2018 20:58:40 Jan 7 03:58 pm Jan 7 12:58 pm
426.00 01/07/2018 19:58:56 Jan 7 02:58 pm Jan 7 11:58 am
409.00 01/07/2018 18:59:12 Jan 7 01:59 pm Jan 7 10:59 am
416.00 01/07/2018 17:59:28 Jan 7 12:59 pm Jan 7 9:59 am
530.00 01/07/2018 16:59:44 Jan 7 11:59 am Jan 7 8:59 am
417.00 01/07/2018 16:00:00 Jan 7 11:00 am Jan 7 8:00 am
414.00 01/07/2018 14:58:08 Jan 7 09:58 am Jan 7 6:58 am
414.00 01/07/2018 13:58:24 Jan 7 08:58 am Jan 7 5:58 am
411.00 01/07/2018 12:58:40 Jan 7 07:58 am Jan 7 4:58 am
406.00 01/07/2018 11:58:56 Jan 7 06:58 am Jan 7 3:58 am
410.00 01/07/2018 10:59:12 Jan 7 05:59 am Jan 7 2:59 am
417.00 01/07/2018 09:59:28 Jan 7 04:59 am Jan 7 1:59 am
404.00 01/07/2018 08:59:44 Jan 7 03:59 am Jan 7 12:59 am
421.00 01/07/2018 08:00:00 Jan 7 03:00 am Jan 7 12:00 am
421.00 01/07/2018 04:58:40 Jan 6 11:58 pm Jan 6 8:58 pm
415.00 01/07/2018 03:58:56 Jan 6 10:58 pm Jan 6 7:58 pm
416.00 01/07/2018 02:59:12 Jan 6 09:59 pm Jan 6 6:59 pm
384.00 01/07/2018 01:59:28 Jan 6 08:59 pm Jan 6 5:59 pm
407.00 01/07/2018 00:59:44 Jan 6 07:59 pm Jan 6 4:59 pm
409.00 01/07/2018 00:00:00 Jan 6 07:00 pm Jan 6 4:00 pm
354.00 01/06/2018 22:58:08 Jan 6 05:58 pm Jan 6 2:58 pm
389.00 01/06/2018 21:58:24 Jan 6 04:58 pm Jan 6 1:58 pm
389.00 01/06/2018 20:58:40 Jan 6 03:58 pm Jan 6 12:58 pm
437.00 01/06/2018 19:58:56 Jan 6 02:58 pm Jan 6 11:58 am
408.00 01/06/2018 18:59:12 Jan 6 01:59 pm Jan 6 10:59 am
495.00 01/06/2018 17:59:28 Jan 6 12:59 pm Jan 6 9:59 am
416.00 01/06/2018 16:59:44 Jan 6 11:59 am Jan 6 8:59 am
425.00 01/06/2018 16:00:00 Jan 6 11:00 am Jan 6 8:00 am
405.00 01/06/2018 14:58:08 Jan 6 09:58 am Jan 6 6:58 am
418.00 01/06/2018 13:58:24 Jan 6 08:58 am Jan 6 5:58 am
415.00 01/06/2018 12:58:40 Jan 6 07:58 am Jan 6 4:58 am
424.00 01/06/2018 11:58:56 Jan 6 06:58 am Jan 6 3:58 am
423.00 01/06/2018 10:59:12 Jan 6 05:59 am Jan 6 2:59 am
410.00 01/06/2018 09:59:28 Jan 6 04:59 am Jan 6 1:59 am
417.00 01/06/2018 08:59:44 Jan 6 03:59 am Jan 6 12:59 am
425.00 01/06/2018 04:58:40 Jan 5 11:58 pm Jan 5 8:58 pm
446.00 01/06/2018 03:58:56 Jan 5 10:58 pm Jan 5 7:58 pm
414.00 01/06/2018 02:59:12 Jan 5 09:59 pm Jan 5 6:59 pm
457.00 01/06/2018 01:59:28 Jan 5 08:59 pm Jan 5 5:59 pm
446.00 01/06/2018 00:59:44 Jan 5 07:59 pm Jan 5 4:59 pm
455.00 01/06/2018 00:00:00 Jan 5 07:00 pm Jan 5 4:00 pm
453.00 01/05/2018 22:58:08 Jan 5 05:58 pm Jan 5 2:58 pm
456.00 01/05/2018 21:58:24 Jan 5 04:58 pm Jan 5 1:58 pm
509.00 01/05/2018 20:58:40 Jan 5 03:58 pm Jan 5 12:58 pm
511.00 01/05/2018 19:58:56 Jan 5 02:58 pm Jan 5 11:58 am
513.00 01/05/2018 18:59:12 Jan 5 01:59 pm Jan 5 10:59 am
538.00 01/05/2018 17:59:28 Jan 5 12:59 pm Jan 5 9:59 am
555.00 01/05/2018 16:59:44 Jan 5 11:59 am Jan 5 8:59 am
596.00 01/05/2018 16:00:00 Jan 5 11:00 am Jan 5 8:00 am
625.00 01/05/2018 14:58:08 Jan 5 09:58 am Jan 5 6:58 am
661.00 01/05/2018 13:58:24 Jan 5 08:58 am Jan 5 5:58 am
689.00 01/05/2018 12:58:40 Jan 5 07:58 am Jan 5 4:58 am
709.00 01/05/2018 11:58:56 Jan 5 06:58 am Jan 5 3:58 am
678.00 01/05/2018 10:59:12 Jan 5 05:59 am Jan 5 2:59 am
724.00 01/05/2018 09:59:28 Jan 5 04:59 am Jan 5 1:59 am
683.00 01/05/2018 08:00:00 Jan 5 03:00 am Jan 5 12:00 am
616.00 01/05/2018 04:58:40 Jan 4 11:58 pm Jan 4 8:58 pm
574.00 01/05/2018 03:58:56 Jan 4 10:58 pm Jan 4 7:58 pm
501.00 01/05/2018 02:59:12 Jan 4 09:59 pm Jan 4 6:59 pm
453.00 01/05/2018 01:59:28 Jan 4 08:59 pm Jan 4 5:59 pm
412.00 01/05/2018 00:59:44 Jan 4 07:59 pm Jan 4 4:59 pm
399.00 01/05/2018 00:00:00 Jan 4 07:00 pm Jan 4 4:00 pm
407.00 01/04/2018 22:58:08 Jan 4 05:58 pm Jan 4 2:58 pm
415.00 01/04/2018 21:58:24 Jan 4 04:58 pm Jan 4 1:58 pm
408.00 01/04/2018 20:58:40 Jan 4 03:58 pm Jan 4 12:58 pm
419.00 01/04/2018 19:58:56 Jan 4 02:58 pm Jan 4 11:58 am
421.00 01/04/2018 18:59:12 Jan 4 01:59 pm Jan 4 10:59 am
423.00 01/04/2018 17:59:28 Jan 4 12:59 pm Jan 4 9:59 am
423.00 01/04/2018 16:59:44 Jan 4 11:59 am Jan 4 8:59 am
423.00 01/04/2018 16:00:00 Jan 4 11:00 am Jan 4 8:00 am
412.00 01/04/2018 14:58:08 Jan 4 09:58 am Jan 4 6:58 am
417.00 01/04/2018 13:58:24 Jan 4 08:58 am Jan 4 5:58 am
420.00 01/04/2018 12:58:40 Jan 4 07:58 am Jan 4 4:58 am
415.00 01/04/2018 11:58:56 Jan 4 06:58 am Jan 4 3:58 am
423.00 01/04/2018 10:59:12 Jan 4 05:59 am Jan 4 2:59 am
390.00 01/04/2018 09:59:28 Jan 4 04:59 am Jan 4 1:59 am
421.00 01/04/2018 08:59:44 Jan 4 03:59 am Jan 4 12:59 am
416.00 01/04/2018 04:58:40 Jan 3 11:58 pm Jan 3 8:58 pm
422.00 01/04/2018 03:58:56 Jan 3 10:58 pm Jan 3 7:58 pm
419.00 01/04/2018 02:59:12 Jan 3 09:59 pm Jan 3 6:59 pm
416.00 01/04/2018 01:59:28 Jan 3 08:59 pm Jan 3 5:59 pm
446.00 01/04/2018 00:59:44 Jan 3 07:59 pm Jan 3 4:59 pm
407.00 01/04/2018 00:00:00 Jan 3 07:00 pm Jan 3 4:00 pm
403.00 01/03/2018 22:58:08 Jan 3 05:58 pm Jan 3 2:58 pm
419.00 01/03/2018 21:58:24 Jan 3 04:58 pm Jan 3 1:58 pm
415.00 01/03/2018 20:58:40 Jan 3 03:58 pm Jan 3 12:58 pm
436.00 01/03/2018 19:58:56 Jan 3 02:58 pm Jan 3 11:58 am
422.00 01/03/2018 18:59:12 Jan 3 01:59 pm Jan 3 10:59 am
424.00 01/03/2018 17:59:28 Jan 3 12:59 pm Jan 3 9:59 am
416.00 01/03/2018 16:59:44 Jan 3 11:59 am Jan 3 8:59 am
424.00 01/03/2018 16:00:00 Jan 3 11:00 am Jan 3 8:00 am
414.00 01/03/2018 14:58:08 Jan 3 09:58 am Jan 3 6:58 am

Status

Gauge History

Times listed in GMT 24h, ET and PT hours provided for convenience Graphs in GMT. Readings of "n/a" constitute a frozen gauge or gauge error.
Reading Updated (GMT) Eastern Pacific Comment
too low 01/18/2018 16:00:00 Jan 18 11:00 am Jan 18 8:00 am
running 01/18/2018 13:58:24 Jan 18 08:58 am Jan 18 5:58 am
running 01/18/2018 11:58:56 Jan 18 06:58 am Jan 18 3:58 am
running 01/18/2018 09:59:28 Jan 18 04:59 am Jan 18 1:59 am
running 01/18/2018 08:00:00 Jan 18 03:00 am Jan 18 12:00 am
running 01/18/2018 04:58:40 Jan 17 11:58 pm Jan 17 8:58 pm
too low 01/18/2018 03:58:56 Jan 17 10:58 pm Jan 17 7:58 pm
too low 01/18/2018 01:59:28 Jan 17 08:59 pm Jan 17 5:59 pm
too low 01/18/2018 00:00:00 Jan 17 07:00 pm Jan 17 4:00 pm
too low 01/17/2018 22:58:08 Jan 17 05:58 pm Jan 17 2:58 pm
too low 01/17/2018 21:58:24 Jan 17 04:58 pm Jan 17 1:58 pm
too low 01/17/2018 20:58:40 Jan 17 03:58 pm Jan 17 12:58 pm
too low 01/17/2018 19:58:56 Jan 17 02:58 pm Jan 17 11:58 am
too low 01/17/2018 18:59:12 Jan 17 01:59 pm Jan 17 10:59 am
too low 01/17/2018 17:59:28 Jan 17 12:59 pm Jan 17 9:59 am
too low 01/17/2018 16:59:44 Jan 17 11:59 am Jan 17 8:59 am
too low 01/17/2018 16:00:00 Jan 17 11:00 am Jan 17 8:00 am
running 01/17/2018 14:58:08 Jan 17 09:58 am Jan 17 6:58 am
running 01/17/2018 13:58:24 Jan 17 08:58 am Jan 17 5:58 am
running 01/17/2018 11:58:56 Jan 17 06:58 am Jan 17 3:58 am
running 01/17/2018 10:59:12 Jan 17 05:59 am Jan 17 2:59 am
running 01/17/2018 09:59:28 Jan 17 04:59 am Jan 17 1:59 am
running 01/17/2018 08:59:44 Jan 17 03:59 am Jan 17 12:59 am
running 01/17/2018 08:00:00 Jan 17 03:00 am Jan 17 12:00 am
running 01/17/2018 04:58:40 Jan 16 11:58 pm Jan 16 8:58 pm
too low 01/17/2018 03:58:56 Jan 16 10:58 pm Jan 16 7:58 pm
too low 01/17/2018 02:59:12 Jan 16 09:59 pm Jan 16 6:59 pm
too low 01/16/2018 22:58:08 Jan 16 05:58 pm Jan 16 2:58 pm
too low 01/16/2018 20:58:40 Jan 16 03:58 pm Jan 16 12:58 pm
too low 01/16/2018 19:58:56 Jan 16 02:58 pm Jan 16 11:58 am
too low 01/16/2018 17:59:28 Jan 16 12:59 pm Jan 16 9:59 am
too low 01/16/2018 16:59:44 Jan 16 11:59 am Jan 16 8:59 am
running 01/16/2018 16:00:00 Jan 16 11:00 am Jan 16 8:00 am
running 01/16/2018 14:58:08 Jan 16 09:58 am Jan 16 6:58 am
running 01/16/2018 13:58:24 Jan 16 08:58 am Jan 16 5:58 am
running 01/16/2018 12:58:40 Jan 16 07:58 am Jan 16 4:58 am
running 01/16/2018 11:58:56 Jan 16 06:58 am Jan 16 3:58 am
running 01/16/2018 10:59:12 Jan 16 05:59 am Jan 16 2:59 am
running 01/16/2018 09:59:28 Jan 16 04:59 am Jan 16 1:59 am
running 01/16/2018 08:00:00 Jan 16 03:00 am Jan 16 12:00 am
running 01/16/2018 04:58:40 Jan 15 11:58 pm Jan 15 8:58 pm
running 01/16/2018 03:58:56 Jan 15 10:58 pm Jan 15 7:58 pm
too low 01/16/2018 01:59:28 Jan 15 08:59 pm Jan 15 5:59 pm
too low 01/16/2018 00:00:00 Jan 15 07:00 pm Jan 15 4:00 pm
too low 01/15/2018 22:58:08 Jan 15 05:58 pm Jan 15 2:58 pm
too low 01/15/2018 21:58:24 Jan 15 04:58 pm Jan 15 1:58 pm
too low 01/15/2018 20:58:40 Jan 15 03:58 pm Jan 15 12:58 pm
too low 01/15/2018 19:58:56 Jan 15 02:58 pm Jan 15 11:58 am
too low 01/15/2018 18:59:12 Jan 15 01:59 pm Jan 15 10:59 am
too low 01/15/2018 17:59:28 Jan 15 12:59 pm Jan 15 9:59 am
too low 01/15/2018 16:59:44 Jan 15 11:59 am Jan 15 8:59 am
too low 01/15/2018 16:00:00 Jan 15 11:00 am Jan 15 8:00 am
too low 01/15/2018 14:58:08 Jan 15 09:58 am Jan 15 6:58 am
too low 01/15/2018 13:58:24 Jan 15 08:58 am Jan 15 5:58 am
too low 01/15/2018 12:58:40 Jan 15 07:58 am Jan 15 4:58 am
too low 01/15/2018 11:58:56 Jan 15 06:58 am Jan 15 3:58 am
too low 01/15/2018 10:59:12 Jan 15 05:59 am Jan 15 2:59 am
too low 01/15/2018 09:59:28 Jan 15 04:59 am Jan 15 1:59 am
too low 01/15/2018 08:59:44 Jan 15 03:59 am Jan 15 12:59 am
too low 01/15/2018 04:58:40 Jan 14 11:58 pm Jan 14 8:58 pm
too low 01/15/2018 03:58:56 Jan 14 10:58 pm Jan 14 7:58 pm
too low 01/15/2018 02:59:12 Jan 14 09:59 pm Jan 14 6:59 pm
too low 01/15/2018 01:59:28 Jan 14 08:59 pm Jan 14 5:59 pm
too low 01/15/2018 00:00:00 Jan 14 07:00 pm Jan 14 4:00 pm
too low 01/14/2018 22:58:08 Jan 14 05:58 pm Jan 14 2:58 pm
too low 01/14/2018 21:58:24 Jan 14 04:58 pm Jan 14 1:58 pm
too low 01/14/2018 20:58:40 Jan 14 03:58 pm Jan 14 12:58 pm
too low 01/14/2018 19:58:56 Jan 14 02:58 pm Jan 14 11:58 am
too low 01/14/2018 18:59:12 Jan 14 01:59 pm Jan 14 10:59 am
too low 01/14/2018 17:59:28 Jan 14 12:59 pm Jan 14 9:59 am
too low 01/14/2018 16:59:44 Jan 14 11:59 am Jan 14 8:59 am
too low 01/14/2018 16:00:00 Jan 14 11:00 am Jan 14 8:00 am
too low 01/14/2018 14:58:08 Jan 14 09:58 am Jan 14 6:58 am
too low 01/14/2018 13:58:24 Jan 14 08:58 am Jan 14 5:58 am
too low 01/14/2018 12:58:40 Jan 14 07:58 am Jan 14 4:58 am
too low 01/14/2018 11:58:56 Jan 14 06:58 am Jan 14 3:58 am
too low 01/14/2018 10:59:12 Jan 14 05:59 am Jan 14 2:59 am
too low 01/14/2018 09:59:28 Jan 14 04:59 am Jan 14 1:59 am
too low 01/14/2018 08:00:00 Jan 14 03:00 am Jan 14 12:00 am
too low 01/14/2018 04:58:40 Jan 13 11:58 pm Jan 13 8:58 pm
too low 01/14/2018 03:58:56 Jan 13 10:58 pm Jan 13 7:58 pm
too low 01/14/2018 02:59:12 Jan 13 09:59 pm Jan 13 6:59 pm
too low 01/14/2018 01:59:28 Jan 13 08:59 pm Jan 13 5:59 pm
too low 01/14/2018 00:00:00 Jan 13 07:00 pm Jan 13 4:00 pm
too low 01/13/2018 22:58:08 Jan 13 05:58 pm Jan 13 2:58 pm
too low 01/13/2018 21:58:24 Jan 13 04:58 pm Jan 13 1:58 pm
too low 01/13/2018 20:58:40 Jan 13 03:58 pm Jan 13 12:58 pm
too low 01/13/2018 19:58:56 Jan 13 02:58 pm Jan 13 11:58 am
too low 01/13/2018 18:59:12 Jan 13 01:59 pm Jan 13 10:59 am
too low 01/13/2018 17:59:28 Jan 13 12:59 pm Jan 13 9:59 am
too low 01/13/2018 16:59:44 Jan 13 11:59 am Jan 13 8:59 am
running 01/13/2018 16:00:00 Jan 13 11:00 am Jan 13 8:00 am
running 01/13/2018 14:58:08 Jan 13 09:58 am Jan 13 6:58 am
running 01/13/2018 13:58:24 Jan 13 08:58 am Jan 13 5:58 am
running 01/13/2018 12:58:40 Jan 13 07:58 am Jan 13 4:58 am
running 01/13/2018 11:58:56 Jan 13 06:58 am Jan 13 3:58 am
running 01/13/2018 10:59:12 Jan 13 05:59 am Jan 13 2:59 am
running 01/13/2018 09:59:28 Jan 13 04:59 am Jan 13 1:59 am
running 01/13/2018 08:59:44 Jan 13 03:59 am Jan 13 12:59 am
running 01/13/2018 08:00:00 Jan 13 03:00 am Jan 13 12:00 am
running 01/13/2018 04:58:40 Jan 12 11:58 pm Jan 12 8:58 pm
running 01/13/2018 03:58:56 Jan 12 10:58 pm Jan 12 7:58 pm
running 01/13/2018 02:59:12 Jan 12 09:59 pm Jan 12 6:59 pm
too low 01/13/2018 01:59:28 Jan 12 08:59 pm Jan 12 5:59 pm
too low 01/13/2018 00:00:00 Jan 12 07:00 pm Jan 12 4:00 pm
too low 01/12/2018 22:58:08 Jan 12 05:58 pm Jan 12 2:58 pm
too low 01/12/2018 21:58:24 Jan 12 04:58 pm Jan 12 1:58 pm
too low 01/12/2018 20:58:40 Jan 12 03:58 pm Jan 12 12:58 pm
too low 01/12/2018 19:58:56 Jan 12 02:58 pm Jan 12 11:58 am
too low 01/12/2018 18:59:12 Jan 12 01:59 pm Jan 12 10:59 am
too low 01/12/2018 17:59:28 Jan 12 12:59 pm Jan 12 9:59 am
running 01/12/2018 16:59:44 Jan 12 11:59 am Jan 12 8:59 am
running 01/12/2018 16:00:00 Jan 12 11:00 am Jan 12 8:00 am
running 01/12/2018 14:58:08 Jan 12 09:58 am Jan 12 6:58 am
running 01/12/2018 13:58:24 Jan 12 08:58 am Jan 12 5:58 am
running 01/12/2018 12:58:40 Jan 12 07:58 am Jan 12 4:58 am
running 01/12/2018 11:58:56 Jan 12 06:58 am Jan 12 3:58 am
running 01/12/2018 10:59:12 Jan 12 05:59 am Jan 12 2:59 am
running 01/12/2018 09:59:28 Jan 12 04:59 am Jan 12 1:59 am
running 01/12/2018 08:59:44 Jan 12 03:59 am Jan 12 12:59 am
running 01/12/2018 04:58:40 Jan 11 11:58 pm Jan 11 8:58 pm
too low 01/11/2018 22:58:08 Jan 11 05:58 pm Jan 11 2:58 pm
too low 01/11/2018 21:58:24 Jan 11 04:58 pm Jan 11 1:58 pm
too low 01/11/2018 20:58:40 Jan 11 03:58 pm Jan 11 12:58 pm
too low 01/11/2018 19:58:56 Jan 11 02:58 pm Jan 11 11:58 am
too low 01/11/2018 18:59:12 Jan 11 01:59 pm Jan 11 10:59 am
too low 01/11/2018 17:59:28 Jan 11 12:59 pm Jan 11 9:59 am
too low 01/11/2018 16:59:44 Jan 11 11:59 am Jan 11 8:59 am
too low 01/11/2018 16:00:00 Jan 11 11:00 am Jan 11 8:00 am
running 01/11/2018 14:58:08 Jan 11 09:58 am Jan 11 6:58 am
running 01/11/2018 13:58:24 Jan 11 08:58 am Jan 11 5:58 am
running 01/11/2018 12:58:40 Jan 11 07:58 am Jan 11 4:58 am
running 01/11/2018 11:58:56 Jan 11 06:58 am Jan 11 3:58 am
running 01/11/2018 10:59:12 Jan 11 05:59 am Jan 11 2:59 am
running 01/11/2018 09:59:28 Jan 11 04:59 am Jan 11 1:59 am
running 01/11/2018 08:59:44 Jan 11 03:59 am Jan 11 12:59 am
running 01/11/2018 08:00:00 Jan 11 03:00 am Jan 11 12:00 am
running 01/11/2018 04:58:40 Jan 10 11:58 pm Jan 10 8:58 pm
too low 01/11/2018 03:58:56 Jan 10 10:58 pm Jan 10 7:58 pm
too low 01/11/2018 02:59:12 Jan 10 09:59 pm Jan 10 6:59 pm
too low 01/11/2018 01:59:28 Jan 10 08:59 pm Jan 10 5:59 pm
too low 01/10/2018 22:58:08 Jan 10 05:58 pm Jan 10 2:58 pm
too low 01/10/2018 21:58:24 Jan 10 04:58 pm Jan 10 1:58 pm
too low 01/10/2018 20:58:40 Jan 10 03:58 pm Jan 10 12:58 pm
too low 01/10/2018 19:58:56 Jan 10 02:58 pm Jan 10 11:58 am
too low 01/10/2018 18:59:12 Jan 10 01:59 pm Jan 10 10:59 am
too low 01/10/2018 17:59:28 Jan 10 12:59 pm Jan 10 9:59 am
too low 01/10/2018 16:59:44 Jan 10 11:59 am Jan 10 8:59 am
too low 01/10/2018 16:00:00 Jan 10 11:00 am Jan 10 8:00 am
too low 01/10/2018 14:58:08 Jan 10 09:58 am Jan 10 6:58 am
too low 01/10/2018 13:58:24 Jan 10 08:58 am Jan 10 5:58 am
too low 01/10/2018 12:58:40 Jan 10 07:58 am Jan 10 4:58 am
too low 01/10/2018 10:59:12 Jan 10 05:59 am Jan 10 2:59 am
too low 01/10/2018 09:59:28 Jan 10 04:59 am Jan 10 1:59 am
too low 01/10/2018 08:59:44 Jan 10 03:59 am Jan 10 12:59 am
too low 01/10/2018 04:58:40 Jan 9 11:58 pm Jan 9 8:58 pm
too low 01/10/2018 03:58:56 Jan 9 10:58 pm Jan 9 7:58 pm
too low 01/10/2018 02:59:12 Jan 9 09:59 pm Jan 9 6:59 pm
too low 01/10/2018 01:59:28 Jan 9 08:59 pm Jan 9 5:59 pm
too low 01/10/2018 00:00:00 Jan 9 07:00 pm Jan 9 4:00 pm
too low 01/09/2018 22:58:08 Jan 9 05:58 pm Jan 9 2:58 pm
too low 01/09/2018 21:58:24 Jan 9 04:58 pm Jan 9 1:58 pm
too low 01/09/2018 20:58:40 Jan 9 03:58 pm Jan 9 12:58 pm
too low 01/09/2018 19:58:56 Jan 9 02:58 pm Jan 9 11:58 am
too low 01/09/2018 18:59:12 Jan 9 01:59 pm Jan 9 10:59 am
too low 01/09/2018 17:59:28 Jan 9 12:59 pm Jan 9 9:59 am
too low 01/09/2018 16:59:44 Jan 9 11:59 am Jan 9 8:59 am
too low 01/09/2018 16:00:00 Jan 9 11:00 am Jan 9 8:00 am
too low 01/09/2018 14:58:08 Jan 9 09:58 am Jan 9 6:58 am
too low 01/09/2018 13:58:24 Jan 9 08:58 am Jan 9 5:58 am
too low 01/09/2018 12:58:40 Jan 9 07:58 am Jan 9 4:58 am
too low 01/09/2018 11:58:56 Jan 9 06:58 am Jan 9 3:58 am
too low 01/09/2018 10:59:12 Jan 9 05:59 am Jan 9 2:59 am
too low 01/09/2018 08:59:44 Jan 9 03:59 am Jan 9 12:59 am
too low 01/09/2018 04:58:40 Jan 8 11:58 pm Jan 8 8:58 pm
too low 01/09/2018 03:58:56 Jan 8 10:58 pm Jan 8 7:58 pm
too low 01/09/2018 02:59:12 Jan 8 09:59 pm Jan 8 6:59 pm
too low 01/09/2018 00:59:44 Jan 8 07:59 pm Jan 8 4:59 pm
too low 01/09/2018 00:00:00 Jan 8 07:00 pm Jan 8 4:00 pm
too low 01/08/2018 22:58:08 Jan 8 05:58 pm Jan 8 2:58 pm
too low 01/08/2018 21:58:24 Jan 8 04:58 pm Jan 8 1:58 pm
too low 01/08/2018 20:58:40 Jan 8 03:58 pm Jan 8 12:58 pm
too low 01/08/2018 19:58:56 Jan 8 02:58 pm Jan 8 11:58 am
too low 01/08/2018 18:59:12 Jan 8 01:59 pm Jan 8 10:59 am
too low 01/08/2018 17:59:28 Jan 8 12:59 pm Jan 8 9:59 am
too low 01/08/2018 16:59:44 Jan 8 11:59 am Jan 8 8:59 am
too low 01/08/2018 16:00:00 Jan 8 11:00 am Jan 8 8:00 am
too low 01/08/2018 14:58:08 Jan 8 09:58 am Jan 8 6:58 am
too low 01/08/2018 13:58:24 Jan 8 08:58 am Jan 8 5:58 am
too low 01/08/2018 12:58:40 Jan 8 07:58 am Jan 8 4:58 am
too low 01/08/2018 11:58:56 Jan 8 06:58 am Jan 8 3:58 am
too low 01/08/2018 10:59:12 Jan 8 05:59 am Jan 8 2:59 am
too low 01/08/2018 09:59:28 Jan 8 04:59 am Jan 8 1:59 am
too low 01/08/2018 08:59:44 Jan 8 03:59 am Jan 8 12:59 am
too low 01/08/2018 04:58:40 Jan 7 11:58 pm Jan 7 8:58 pm
too low 01/08/2018 03:58:56 Jan 7 10:58 pm Jan 7 7:58 pm
too low 01/08/2018 02:59:12 Jan 7 09:59 pm Jan 7 6:59 pm
too low 01/08/2018 01:59:28 Jan 7 08:59 pm Jan 7 5:59 pm
too low 01/08/2018 00:59:44 Jan 7 07:59 pm Jan 7 4:59 pm
too low 01/08/2018 00:00:00 Jan 7 07:00 pm Jan 7 4:00 pm
too low 01/07/2018 22:58:08 Jan 7 05:58 pm Jan 7 2:58 pm
too low 01/07/2018 21:58:24 Jan 7 04:58 pm Jan 7 1:58 pm
too low 01/07/2018 20:58:40 Jan 7 03:58 pm Jan 7 12:58 pm
too low 01/07/2018 19:58:56 Jan 7 02:58 pm Jan 7 11:58 am
too low 01/07/2018 18:59:12 Jan 7 01:59 pm Jan 7 10:59 am
too low 01/07/2018 17:59:28 Jan 7 12:59 pm Jan 7 9:59 am
too low 01/07/2018 16:59:44 Jan 7 11:59 am Jan 7 8:59 am
too low 01/07/2018 16:00:00 Jan 7 11:00 am Jan 7 8:00 am
too low 01/07/2018 14:58:08 Jan 7 09:58 am Jan 7 6:58 am
too low 01/07/2018 13:58:24 Jan 7 08:58 am Jan 7 5:58 am
too low 01/07/2018 12:58:40 Jan 7 07:58 am Jan 7 4:58 am
too low 01/07/2018 10:59:12 Jan 7 05:59 am Jan 7 2:59 am
too low 01/07/2018 08:59:44 Jan 7 03:59 am Jan 7 12:59 am
too low 01/07/2018 08:00:00 Jan 7 03:00 am Jan 7 12:00 am
too low 01/07/2018 04:58:40 Jan 6 11:58 pm Jan 6 8:58 pm
too low 01/07/2018 03:58:56 Jan 6 10:58 pm Jan 6 7:58 pm
too low 01/07/2018 02:59:12 Jan 6 09:59 pm Jan 6 6:59 pm
too low 01/07/2018 01:59:28 Jan 6 08:59 pm Jan 6 5:59 pm
too low 01/07/2018 00:59:44 Jan 6 07:59 pm Jan 6 4:59 pm
too low 01/07/2018 00:00:00 Jan 6 07:00 pm Jan 6 4:00 pm
too low 01/06/2018 22:58:08 Jan 6 05:58 pm Jan 6 2:58 pm
too low 01/06/2018 21:58:24 Jan 6 04:58 pm Jan 6 1:58 pm
too low 01/06/2018 20:58:40 Jan 6 03:58 pm Jan 6 12:58 pm
too low 01/06/2018 19:58:56 Jan 6 02:58 pm Jan 6 11:58 am
too low 01/06/2018 18:59:12 Jan 6 01:59 pm Jan 6 10:59 am
too low 01/06/2018 17:59:28 Jan 6 12:59 pm Jan 6 9:59 am
too low 01/06/2018 16:59:44 Jan 6 11:59 am Jan 6 8:59 am
too low 01/06/2018 16:00:00 Jan 6 11:00 am Jan 6 8:00 am
too low 01/06/2018 14:58:08 Jan 6 09:58 am Jan 6 6:58 am
too low 01/06/2018 13:58:24 Jan 6 08:58 am Jan 6 5:58 am
too low 01/06/2018 12:58:40 Jan 6 07:58 am Jan 6 4:58 am
too low 01/06/2018 11:58:56 Jan 6 06:58 am Jan 6 3:58 am
too low 01/06/2018 10:59:12 Jan 6 05:59 am Jan 6 2:59 am
too low 01/06/2018 08:59:44 Jan 6 03:59 am Jan 6 12:59 am
too low 01/06/2018 04:58:40 Jan 5 11:58 pm Jan 5 8:58 pm
too low 01/06/2018 03:58:56 Jan 5 10:58 pm Jan 5 7:58 pm
too low 01/06/2018 02:59:12 Jan 5 09:59 pm Jan 5 6:59 pm
too low 01/06/2018 01:59:28 Jan 5 08:59 pm Jan 5 5:59 pm
too low 01/06/2018 00:59:44 Jan 5 07:59 pm Jan 5 4:59 pm
too low 01/06/2018 00:00:00 Jan 5 07:00 pm Jan 5 4:00 pm
too low 01/05/2018 22:58:08 Jan 5 05:58 pm Jan 5 2:58 pm
too low 01/05/2018 21:58:24 Jan 5 04:58 pm Jan 5 1:58 pm
too low 01/05/2018 20:58:40 Jan 5 03:58 pm Jan 5 12:58 pm
too low 01/05/2018 19:58:56 Jan 5 02:58 pm Jan 5 11:58 am
too low 01/05/2018 18:59:12 Jan 5 01:59 pm Jan 5 10:59 am
too low 01/05/2018 17:59:28 Jan 5 12:59 pm Jan 5 9:59 am
too low 01/05/2018 16:59:44 Jan 5 11:59 am Jan 5 8:59 am
too low 01/05/2018 16:00:00 Jan 5 11:00 am Jan 5 8:00 am
running 01/05/2018 14:58:08 Jan 5 09:58 am Jan 5 6:58 am
running 01/05/2018 13:58:24 Jan 5 08:58 am Jan 5 5:58 am
running 01/05/2018 12:58:40 Jan 5 07:58 am Jan 5 4:58 am
running 01/05/2018 11:58:56 Jan 5 06:58 am Jan 5 3:58 am
running 01/05/2018 10:59:12 Jan 5 05:59 am Jan 5 2:59 am
running 01/05/2018 09:59:28 Jan 5 04:59 am Jan 5 1:59 am
running 01/05/2018 08:00:00 Jan 5 03:00 am Jan 5 12:00 am
running 01/05/2018 04:58:40 Jan 4 11:58 pm Jan 4 8:58 pm
too low 01/05/2018 02:59:12 Jan 4 09:59 pm Jan 4 6:59 pm
too low 01/05/2018 01:59:28 Jan 4 08:59 pm Jan 4 5:59 pm
too low 01/05/2018 00:59:44 Jan 4 07:59 pm Jan 4 4:59 pm
too low 01/05/2018 00:00:00 Jan 4 07:00 pm Jan 4 4:00 pm
too low 01/04/2018 22:58:08 Jan 4 05:58 pm Jan 4 2:58 pm
too low 01/04/2018 21:58:24 Jan 4 04:58 pm Jan 4 1:58 pm
too low 01/04/2018 20:58:40 Jan 4 03:58 pm Jan 4 12:58 pm
too low 01/04/2018 19:58:56 Jan 4 02:58 pm Jan 4 11:58 am
too low 01/04/2018 18:59:12 Jan 4 01:59 pm Jan 4 10:59 am
too low 01/04/2018 17:59:28 Jan 4 12:59 pm Jan 4 9:59 am
too low 01/04/2018 16:59:44 Jan 4 11:59 am Jan 4 8:59 am
too low 01/04/2018 16:00:00 Jan 4 11:00 am Jan 4 8:00 am
too low 01/04/2018 14:58:08 Jan 4 09:58 am Jan 4 6:58 am
too low 01/04/2018 13:58:24 Jan 4 08:58 am Jan 4 5:58 am
too low 01/04/2018 12:58:40 Jan 4 07:58 am Jan 4 4:58 am
too low 01/04/2018 11:58:56 Jan 4 06:58 am Jan 4 3:58 am
too low 01/04/2018 10:59:12 Jan 4 05:59 am Jan 4 2:59 am
too low 01/04/2018 08:59:44 Jan 4 03:59 am Jan 4 12:59 am
too low 01/04/2018 04:58:40 Jan 3 11:58 pm Jan 3 8:58 pm
too low 01/04/2018 03:58:56 Jan 3 10:58 pm Jan 3 7:58 pm
too low 01/04/2018 02:59:12 Jan 3 09:59 pm Jan 3 6:59 pm
too low 01/04/2018 01:59:28 Jan 3 08:59 pm Jan 3 5:59 pm
too low 01/04/2018 00:59:44 Jan 3 07:59 pm Jan 3 4:59 pm
too low 01/04/2018 00:00:00 Jan 3 07:00 pm Jan 3 4:00 pm
too low 01/03/2018 22:58:08 Jan 3 05:58 pm Jan 3 2:58 pm
too low 01/03/2018 21:58:24 Jan 3 04:58 pm Jan 3 1:58 pm
too low 01/03/2018 20:58:40 Jan 3 03:58 pm Jan 3 12:58 pm
too low 01/03/2018 19:58:56 Jan 3 02:58 pm Jan 3 11:58 am
too low 01/03/2018 18:59:12 Jan 3 01:59 pm Jan 3 10:59 am
too low 01/03/2018 17:59:28 Jan 3 12:59 pm Jan 3 9:59 am
too low 01/03/2018 16:59:44 Jan 3 11:59 am Jan 3 8:59 am
too low 01/03/2018 16:00:00 Jan 3 11:00 am Jan 3 8:00 am
too low 01/03/2018 14:58:08 Jan 3 09:58 am Jan 3 6:58 am
too low 01/03/2018 13:58:24 Jan 3 08:58 am Jan 3 5:58 am
too low 01/03/2018 12:58:40 Jan 3 07:58 am Jan 3 4:58 am
too low 01/03/2018 11:58:56 Jan 3 06:58 am Jan 3 3:58 am
too low 01/03/2018 10:59:12 Jan 3 05:59 am Jan 3 2:59 am
too low 01/03/2018 08:59:44 Jan 3 03:59 am Jan 3 12:59 am
too low 01/03/2018 08:00:00 Jan 3 03:00 am Jan 3 12:00 am
too low 01/03/2018 04:58:40 Jan 2 11:58 pm Jan 2 8:58 pm
too low 01/03/2018 03:58:56 Jan 2 10:58 pm Jan 2 7:58 pm
too low 01/03/2018 02:59:12 Jan 2 09:59 pm Jan 2 6:59 pm
too low 01/03/2018 01:59:28 Jan 2 08:59 pm Jan 2 5:59 pm
too low 01/03/2018 00:59:44 Jan 2 07:59 pm Jan 2 4:59 pm

Report - Reports of Related Gauges

Reports give the public a chance to report on river conditions throughout the country as well as log the history of a river.

Reports

No Reports Filed

Linked Reaches

Click a heading to sort. Hover over a heading for help.
River Name/Section Class Level running? Updated
Pit [CA] 2) Pit 1: Fall River Mills to Pit River Campground (Pit Fall... III-IV ~ 599 cfs
-19 cfs/hr
L9-
Below Recom.
05h26m